Wainwright, AK

7:01 PM AKDT on April 19, 2018 (GMT -0800)
Wainwright

Weather History for PAWI - March, 2013

Change the Weather History Date:

Sunday, March 3, 2013

  Actual Average (PABR) Record (PABR)
Temperature  
Mean Temperature -21 °F -  
Max Temperature -14 °F -10 °F 29 °F (1996)
Min Temperature -26 °F -22 °F -48 °F (1961)
Degree Days  
Heating Degree Days 86    
Moisture  
Dew Point -28 °F    
Average Humidity 73    
Maximum Humidity 79    
Minimum Humidity 69    
Precipitation  
Precipitation 0.00 in - - ()
Sea Level Pressure  
Sea Level Pressure 30.40 in    
Wind  
Wind Speed 26 mph (East)    
Max Wind Speed 44 mph    
Max Gust Speed 53 mph    
Averages and records for this station are not official NWS values.
T = Trace of Precipitation, MM = Missing Value Source: NWS Daily Summary

Daily Weather History Graph

Daily Weather History Graph

Search for Another Location

Airport or City:

Astronomy

Mar. 03, 2013 Rise Set
Actual Time 8:57 AM AKST 6:47 PM AKST
Civil Twilight 7:54 AM AKST 7:51 PM AKST
Nautical Twilight 6:41 AM AKST 9:04 PM AKST
Astronomical Twilight 5:21 AM AKST 10:25 PM AKST
Moon 5:33 AM AKST (3/3) 7:21 AM AKST (3/3)
Length of Visible Light 11h 57m
Length of Day
9h 50m
Waning Gibbous, 62% of the Moon is Illuminated
Mar 3
Waning Gibbous
Mar 4
Last Quarter
Mar 11
New
Mar 19
First Quarter
Mar 27
Full

Hourly Weather History & Observations

Time (AKST) Temp. Windchill Dew Point Humidity Pressure Visibility Wind Dir Wind Speed Gust Speed Precip Events Conditions
12:53 AM -23.1 °F -52.0 °F -29.9 °F 70% 30.57 in 1.0 mi ENE 19.6 mph - N/A   Haze
1:53 AM -24.0 °F -53.9 °F -31.0 °F 70% 30.56 in 1.0 mi ENE 20.7 mph - N/A   Haze
2:34 AM -23.8 °F -54.3 °F -31.0 °F 69% 30.54 in 0.8 mi ENE 21.9 mph - N/A   Haze
3:53 AM -25.1 °F -57.2 °F -31.0 °F 74% 30.54 in 0.5 mi East 24.2 mph - N/A   Haze
4:53 AM -25.1 °F -55.3 °F -31.0 °F 74% 30.55 in 0.5 mi East 20.7 mph - N/A   Haze
5:39 AM -25.6 °F -57.3 °F -32.8 °F 69% 30.54 in 0.5 mi East 23.0 mph - N/A   Haze
5:53 AM -25.1 °F -55.9 °F -32.1 °F 70% 30.56 in 0.5 mi East 21.9 mph - N/A   Haze
6:53 AM -25.1 °F -57.7 °F -32.1 °F 70% 30.52 in 0.5 mi East 25.3 mph - N/A   Haze
7:53 AM -26.0 °F -59.5 °F -32.1 °F 73% 30.50 in 0.2 mi East 26.5 mph - N/A   Unknown
8:53 AM -26.0 °F -60.0 °F -32.1 °F 73% 30.48 in 0.2 mi East 27.6 mph - N/A   Unknown
9:53 AM -26.0 °F -62.0 °F -32.1 °F 73% 30.45 in 0.2 mi East 32.2 mph - N/A Snow Heavy Snow
10:53 AM -25.1 °F -59.9 °F -32.1 °F 70% 30.43 in 0.2 mi East 29.9 mph - N/A Snow Heavy Snow
11:53 AM -24.0 °F -60.2 °F -29.9 °F 74% 30.41 in 0.2 mi East 34.5 mph 40.3 mph N/A Snow Heavy Snow
12:53 PM -22.0 °F -58.3 °F -29.0 °F 70% 30.38 in 0.2 mi East 36.8 mph 43.7 mph N/A Snow Heavy Snow
1:53 PM -20.9 °F -56.0 °F -27.0 °F 73% 30.37 in 0.2 mi East 34.5 mph 43.7 mph N/A Snow Heavy Snow
2:53 PM -20.0 °F -56.4 °F -26.0 °F 74% 30.36 in 0.2 mi East 39.1 mph 49.5 mph N/A   Unknown
3:53 PM -18.9 °F -56.3 °F -26.0 °F 70% 30.27 in 0.2 mi East 43.7 mph 52.9 mph N/A Snow Heavy Snow
4:53 PM -18.9 °F -54.1 °F -25.1 °F 74% 30.30 in 0.2 mi East 36.8 mph 43.7 mph N/A Snow Heavy Snow
5:53 PM -18.9 °F -52.0 °F -25.1 °F 74% 30.30 in 0.2 mi East 31.1 mph 41.4 mph N/A Snow Heavy Snow
6:53 PM -18.9 °F -52.4 °F -25.1 °F 74% 30.29 in 0.2 mi East 32.2 mph 38.0 mph N/A   Unknown
7:53 PM -18.9 °F -51.5 °F -24.0 °F 78% 30.29 in 0.2 mi East 29.9 mph 36.8 mph N/A   Haze
8:33 PM -18.4 °F -50.8 °F -23.8 °F 76% 30.28 in 0.2 mi East 29.9 mph 35.7 mph N/A   Haze
8:53 PM -18.0 °F -49.9 °F -24.0 °F 74% 30.29 in 0.5 mi East 28.8 mph 36.8 mph N/A   Haze
9:44 PM -16.6 °F -47.4 °F -23.8 °F 70% 30.29 in 0.5 mi East 27.6 mph - N/A Snow Snow
9:53 PM -16.1 °F -46.2 °F -22.0 °F 74% 30.29 in 0.5 mi East 26.5 mph - N/A Snow Snow
10:19 PM -16.6 °F -46.9 °F -22.0 °F 76% 30.28 in 0.2 mi East 26.5 mph - N/A Snow Heavy Snow
10:53 PM -16.1 °F -45.2 °F -20.9 °F 79% 30.30 in 0.5 mi East 24.2 mph - N/A Snow Snow
11:30 PM -14.8 °F -42.9 °F -20.2 °F 77% 30.30 in 0.5 mi East 23.0 mph - N/A Snow Snow